DELTA 2 R/B(1)

Satellite information

Favourite Embed

Satellite Type and Status

ROCKET BODYIN ORBIT

Key statistics

Satellite DELTA 2 R/B(1) at a glance.

Uptime

8303

Days in orbit

Revolutions

≈ 14.3

Per day

Orbit

LEO

Low Earth Orbit

Inclination

39.6

Latest

Satellite identification and parameters

Extended collection of information and parameters for DELTA 2 R/B(1).

Object identification

Identified? True

Debris? False

Object name: DELTA 2 R/B(1)

International designator: 2003-005C

Object number (NORAD): 27665

Object ID (CCSDS): 27665

Country: UNITED STATES OF AMERICA (US)

Current information (Y/N): Y

RCS size: LARGE

Orbital parameters

Period: 100.738 minutes

Inclination: 39.5756 deg

SMA: 7171.697 km

Apoapsis: 800.563 km

Periapsis: 786.561 km

RAAN: 61.2892 deg

Eccentricy: 0.0009762

Argument of periapsis: 292.1618 deg

Mean anomaly: 202.0475 deg

Mean motion: 14.29453035 rev/day

Mean motion (dot): 0.00000306 rev/day2

B* drag term: 0.00015172 1/REarth

Two-line elements (TLE)

Creation date: Oct. 22, 2025, 12:16 a.m.

Reference frame: TEME

Reference center: EARTH

Epoch: Oct. 21, 2025, 4:50 p.m. UTC

TLE line 0: 0 DELTA 2 R/B(1)

TLE line 1: 1 27665U 03005C 25294.70186492 .00000306 00000-0 15172-3 0 9991

TLE line 2: 2 27665 39.5756 61.2892 0009762 292.1618 202.0475 14.29453035186892

Live tracking on map

Real-time ground track for satellite DELTA 2 R/B(1).

In-orbit conjunctions

A list of the most updated potential collisions computed for object DELTA 2 R/B(1).

Target Orbit TCA Probability of collision Miss distance Type
CZ-6A DEB LEO 2025-05-11 08:18:35 0.0001303982 913.0 (m) DEBRIS
NOAA 16 DEB SSO 2025-01-02 13:52:51 0.0002191056 431.0 (m) DEBRIS
CZ-6A DEB LEO 2024-10-29 00:12:20 0.0002962772 284.0 (m) DEBRIS

Associated space launch

USA-166, also known as GPS IIR-8 and GPS SVN-56, is an American navigation satellite which forms part of the Global Positioning System. It was the eighth Block IIR GPS satellite to be launched, out of thirteen in the original configuration, and twenty one overall.

DELTA 2 R/B(1) was lifted into orbit during the mission ‘Delta II | GPS IIR-8’, on board a Delta II space rocket.

The launch took place on Jan. 29, 2003, 6:06 p.m. from Space Launch Complex 17B.

For more information about the launch, click the button.

Launch to space Delta II | GPS IIR-8
Delta II | GPS IIR-8

Agency: N/A

Status: Launch Successful

Launch date: Jan. 29, 2003, 6:06 p.m. UTC

Rocket: Delta II

Launch pad: Space Launch Complex 17B

Location: Cape Canaveral SFS, FL, USA

...

Latest news about this satellite

There are no fresh news available about this satellite. Check back as we update our databases every day.


Newsletter sign-up

Weekly statistics, charts and insights to help you stay on top of the space industry.